Flag for Canada Weather past 2 weeks in Victoria, British Columbia, Canada

37 °F

Passing clouds.

Feels Like: 32 °F
Forecast: 36 / 45 °F
Wind: 7 mph from Northwest

Location: Victoria Int. Airportb. C.

Current Time: Nov 26, 2015 at 10:48:48 AM

Latest Report: Nov 26, 2015 at 10:00 AM

Visibility: 30 mi

Pressure: 30.50 "Hg

Humidity: 81%

Dew point: 32 °F

Location of VictoriaLocation

Historic Weather in Victoria — Graph


Victoria temperature yesterday

Maximum temperature yesterday: 46 °F (at 1:00 PM)
Minimum temperature yesterday: 28 °F (at 3:00 AM)
Average temperature yesterday: 36 °F

Past Weeks' High & Low Weather Summary

High59 °F (Nov 17, 10:00 AM)100% (Nov 12, 9:00 PM)30.59 "Hg (Nov 12, 9:00 PM)
Low28 °F (Nov 25, 3:00 AM)37% (Nov 25, 1:00 PM)29.39 "Hg (Nov 17, 11:49 AM)
Average42 °F84%30.05 "Hg
* Reported Nov 11 9:00 AM — Nov 26 9:00 AM, Victoria, Weather by CustomWeather, © 2015

Note: Actual official high and low records may vary slightly from our data, if they occured in-between our weather recording intervals... More about our weather records


Victoria weather history for previous 24 hours

Time TempWeatherWind HumidityBarometerVisibility
9:00 AM
Thu, Nov 26
32 °FPassing clouds.5 mph93%30.49 "Hg30 mi
8:00 AM32 °FPassing clouds.7 mph87%30.47 "Hg30 mi
7:00 AM30 °FPassing clouds.8 mph86%30.46 "Hg30 mi
6:00 AM28 °FPassing clouds.6 mph93%30.44 "Hg30 mi
5:00 AM32 °FPassing clouds.6 mph93%30.44 "Hg30 mi
4:00 AM32 °FPassing clouds.7 mph87%30.44 "Hg30 mi
3:00 AM32 °FPassing clouds.5 mph87%30.44 "Hg30 mi
2:00 AM32 °FPassing clouds.6 mph87%30.42 "Hg30 mi
1:00 AM32 °FPassing clouds.6 mph87%30.42 "Hg30 mi
12:00 AM36 °FPassing clouds.7 mph75%30.41 "Hg30 mi
11:00 PM
Wed, Nov 25
34 °FClear.6 mph75%30.40 "Hg30 mi
10:00 PM34 °FClear.5 mph75%30.39 "Hg30 mi
9:00 PM34 °FClear.6 mph75%30.37 "Hg30 mi
8:00 PM34 °FClear.2 mph70%30.38 "Hg30 mi
7:00 PM34 °FClear.6 mph65%30.36 "Hg30 mi
6:00 PM36 °FClear.7 mph65%30.35 "Hg30 mi
5:00 PM34 °FPassing clouds.3 mph75%30.35 "Hg30 mi
4:00 PM43 °FPassing clouds.7 mph39%30.34 "Hg30 mi
3:00 PM46 °FPassing clouds.7 mph37%30.34 "Hg30 mi
2:00 PM46 °FPassing clouds.8 mph40%30.33 "Hg30 mi
1:00 PM46 °FPassing clouds.6 mph37%30.34 "Hg30 mi
12:00 PM45 °FPassing clouds.7 mph49%30.35 "Hg30 mi
11:00 AM41 °FPassing clouds.10 mph66%30.35 "Hg30 mi
10:00 AM37 °FPassing clouds.7 mph75%30.35 "Hg30 mi
Weather by CustomWeather, © 2015

See weather overviewHow to use our weather pages